Regional Weather Roundup
Issued by NWS Tiyan, Guam

Home | Current Version | Previous Version | Text Only | Print | Product List | Glossary On
Versions: 1 2 3 4 5 6 7 8 9 10 11 12 13 14 15 16 17 18 19 20 21 22 23 24 25 26 27 28 29 30 31 32 33 34 35 36 37 38 39 40 41 42 43 44 45 46 47 48 49 50
000
ASGM40 PGUM 170612
RWRGUM
WEATHER ROUNDUP FOR THE MARIANAS
NATIONAL WEATHER SERVICE TIYAN GU
400 PM CHST SUN DEC 17 2017

GUZ001>004-170700-
MARIANA ISLANDS-

CITY           SKY/WX    TMP DP  RH WIND       PRES   REMARKS
GUAM AIRPORT   MOSUNNY   86  75  70 E18G26    29.80S HX  95
ANDERSEN AFB   PTSUNNY   82  73  74 E20       29.81S
ROTA AIRPORT   MOSUNNY   82  72  69 E15       29.82R
TINIAN AP      MOSUNNY   84  75  74 E13       29.80S HX  92
SAIPAN AP      MOSUNNY   86  75  70 E15       29.82R HX  95

$$




USA.gov is the U.S. government's official web portal to all federal, state and local government web resources and services.